Raton, NM

2:08 AM MDT on September 26, 2017 (GMT -0600)
Raton Municipal-Crews

Weather History for KRTN - February, 2012

Change the Weather History Date:

Tuesday, February 7, 2012

  Actual Average (KTAD) Record (KTAD)
Temperature  
Mean Temperature 30 °F -  
Max Temperature 39 °F 46 °F 75 °F (2015)
Min Temperature 21 °F 16 °F -14 °F (1989)
Degree Days  
Heating Degree Days 35    
Moisture  
Dew Point 15 °F    
Average Humidity 57    
Maximum Humidity 74    
Minimum Humidity 34    
Precipitation  
Precipitation 0.00 in - - ()
Sea Level Pressure  
Sea Level Pressure 30.27 in    
Wind  
Wind Speed 12 mph (NNE)    
Max Wind Speed 20 mph    
Max Gust Speed 26 mph    
Visibility 10 miles    
Events      
Averages and records for this station are not official NWS values.
T = Trace of Precipitation, MM = Missing Value Source: NWS Daily Summary

Daily Weather History Graph

Daily Weather History Graph

Search for Another Location

Airport or City:

Trip Planner

Search our weather history database for the weather conditions in past years. The results will help you decide how hot, cold, wet, or windy it might be!

Date:

Astronomy

Feb. 07, 2012 Rise Set
Actual Time 6:55 AM MST 5:29 PM MST
Civil Twilight 6:28 AM MST 5:56 PM MST
Nautical Twilight 5:57 AM MST 6:27 PM MST
Astronomical Twilight 5:27 AM MST 6:57 PM MST
Moon 5:41 PM MST (2/7) 6:26 AM MST (2/7)
Length of Visible Light 11h 28m
Length of Day
10h 34m
Full, 100% of the Moon is Illuminated
Feb 7
Full
Feb 7
Full
Feb 14
Last Quarter
Feb 21
New
Feb 29
First Quarter

Hourly Weather History & Observations

Time (MST) Temp. Windchill Dew Point Humidity Pressure Visibility Wind Dir Wind Speed Gust Speed Precip Events Conditions
12:53 AM 28.9 °F 17.3 °F 17.1 °F 61% 30.11 in 10.0 mi North 16.1 mph 24.2 mph N/A   Overcast
1:53 AM 27.0 °F 14.3 °F 17.1 °F 66% 30.11 in 10.0 mi North 17.3 mph 24.2 mph N/A   Partly Cloudy
2:53 AM 26.1 °F 14.0 °F 16.0 °F 66% 30.13 in 10.0 mi North 15.0 mph 24.2 mph N/A   Clear
3:53 AM 26.1 °F 12.3 °F 17.1 °F 69% 30.11 in 10.0 mi North 19.6 mph 23.0 mph N/A   Partly Cloudy
4:53 AM 25.0 °F 12.6 °F 15.1 °F 66% 30.16 in 10.0 mi NNE 15.0 mph - N/A   Clear
5:53 AM 24.1 °F 9.8 °F 15.1 °F 69% 30.22 in 10.0 mi North 19.6 mph 26.5 mph N/A   Clear
6:53 AM 23.0 °F 17.0 °F 14.0 °F 68% 30.26 in 10.0 mi Variable 4.6 mph 18.4 mph N/A   Clear
7:53 AM 23.0 °F 12.4 °F 16.0 °F 74% 30.31 in 10.0 mi NNE 10.4 mph - N/A   Scattered Clouds
8:03 AM 24.8 °F 15.3 °F 15.8 °F 69% 30.26 in 10.0 mi NE 9.2 mph - N/A   Mostly Cloudy
8:53 AM 30.0 °F 20.0 °F 16.0 °F 56% 30.30 in 10.0 mi NE 12.7 mph - 0.00 in   Mostly Cloudy
9:53 AM 30.0 °F 19.1 °F 14.0 °F 51% 30.32 in 10.0 mi ENE 15.0 mph - N/A   Overcast
10:28 AM 33.8 °F 24.8 °F 14.0 °F 44% 30.28 in 10.0 mi NE 12.7 mph - N/A   Scattered Clouds
10:53 AM 35.1 °F 27.9 °F 14.0 °F 42% 30.30 in 10.0 mi NE 9.2 mph - N/A   Scattered Clouds
11:53 AM 37.0 °F 28.9 °F 14.0 °F 39% 30.27 in 10.0 mi NE 12.7 mph - N/A   Partly Cloudy
12:53 PM 39.0 °F 34.0 °F 12.9 °F 34% 30.24 in 10.0 mi Variable 6.9 mph - N/A   Clear
1:53 PM 39.0 °F 32.3 °F 14.0 °F 36% 30.23 in 10.0 mi NE 10.4 mph - N/A   Clear
2:53 PM 39.0 °F 32.8 °F 15.1 °F 38% 30.24 in 10.0 mi East 9.2 mph - N/A   Clear
3:53 PM 39.0 °F 34.8 °F 14.0 °F 36% 30.25 in 10.0 mi East 5.8 mph - N/A   Clear
4:53 PM 37.9 °F - 14.0 °F 38% 30.26 in 10.0 mi Calm Calm - N/A   Clear
5:53 PM 27.0 °F 20.5 °F 12.9 °F 56% 30.32 in 10.0 mi NE 5.8 mph - N/A   Clear
6:53 PM 24.1 °F - 12.9 °F 62% 30.38 in 10.0 mi Calm Calm - N/A   Clear
7:53 PM 23.0 °F 14.7 °F 12.9 °F 65% 30.41 in 10.0 mi WSW 6.9 mph - N/A   Clear
8:53 PM 21.9 °F 13.4 °F 12.9 °F 68% 30.40 in 10.0 mi WSW 6.9 mph - N/A   Mostly Cloudy
9:53 PM 24.1 °F 13.7 °F 15.1 °F 69% 30.40 in 10.0 mi SW 10.4 mph - N/A   Overcast
10:30 PM 24.8 °F 17.9 °F 15.8 °F 69% 30.32 in 10.0 mi South 5.8 mph - N/A   Overcast
10:53 PM 24.1 °F 17.0 °F 15.1 °F 69% 30.35 in 10.0 mi SSW 5.8 mph - N/A   Overcast
11:53 PM 24.1 °F 17.0 °F 15.1 °F 69% 30.33 in 10.0 mi WSW 5.8 mph - N/A   Overcast